Keps
Threads by month
- ----- 2024 -----
- December
- November
- October
- September
- August
- July
- June
- May
- April
- March
- February
- January
- ----- 2023 -----
- December
- November
- October
- September
- August
- July
- June
- May
- April
- March
- February
- January
- ----- 2022 -----
- December
- November
- October
- September
- August
- July
- June
- May
- April
- March
- February
- January
- ----- 2021 -----
- December
- November
- October
- September
- August
- July
- June
- May
- April
- March
- February
- January
- ----- 2020 -----
- December
- November
- October
- September
- August
- July
- June
- May
- April
- March
- February
- January
- ----- 2019 -----
- December
- November
- October
- September
- August
- July
- June
- May
- April
- March
- February
- January
- ----- 2018 -----
- December
- November
- October
- September
- August
- July
- June
- May
- April
- March
- February
- January
- ----- 2017 -----
- December
- November
- October
- September
- August
- July
- June
- May
- April
- March
- February
- January
- ----- 2016 -----
- December
- November
- October
- September
- August
- July
- June
- May
- April
- March
- February
- January
- ----- 2015 -----
- December
- November
- October
- September
- August
- July
- June
- May
- April
- March
- February
- January
- ----- 2014 -----
- December
- November
- October
- September
- August
- July
- June
- May
- April
- March
- February
- January
- ----- 2013 -----
- December
- November
- October
- September
- August
- July
- June
- May
- April
- March
- February
- January
- ----- 2012 -----
- December
- November
- October
- September
- August
- July
- June
- May
- April
- March
- February
- January
- ----- 2011 -----
- December
- November
- October
- September
- August
- July
- June
- May
- April
- March
- February
- January
- ----- 2010 -----
- December
- November
- October
- September
- August
- July
- June
- May
- April
- March
- February
- January
- ----- 2009 -----
- December
- November
- October
- September
- August
- July
- June
- May
- April
- March
- February
- January
- ----- 2008 -----
- December
- November
- October
- September
- August
- July
- June
- May
- April
- March
- February
- January
- ----- 2007 -----
- December
- November
- October
- September
- August
- July
- June
- May
- April
- March
- February
- January
- ----- 2006 -----
- December
- November
- October
- September
June 2014
- 1 participants
- 11 discussions
SB KEPS @ AMSAT $ORB14177.N
2Line Orbital Elements 14177.AMSAT
HR AMSAT ORBITAL ELEMENTS FOR AMATEUR SATELLITES IN NASA FORMAT
FROM WA5QGD FORT WORTH,TX June 26, 2014
BID: ORB14177.N
DECODE 2-LINE ELSETS WITH THE FOLLOWING KEY:
1 AAAAAU 00 0 0 BBBBB.BBBBBBBB .CCCCCCCC 00000-0 00000-0 0 DDDZ
2 AAAAA EEE.EEEE FFF.FFFF GGGGGGG HHH.HHHH III.IIII JJ.JJJJJJJJKKKKKZ
KEY: A-CATALOGNUM B-EPOCHTIME C-DECAY D-ELSETNUM E-INCLINATION F-RAAN
G-ECCENTRICITY H-ARGPERIGEE I-MNANOM J-MNMOTION K-ORBITNUM Z-CHECKSUM
TO ALL RADIO AMATEURS BT
AO-07
1 07530U 74089B 14176.84605567 -.00000047 00000-0 -19935-4 0 9997
2 07530 101.4717 158.3924 0011430 278.7021 196.4392 12.53605579812600
FO-29
1 24278U 96046B 14177.01444015 -.00000040 00000-0 -21502-5 0 4049
2 24278 098.5114 189.6559 0349391 274.7313 107.8910 13.53025284881862
SO-33
1 25509U 98061B 14177.15371499 .00000238 00000-0 33027-4 0 7804
2 25509 031.4345 109.5756 0349736 192.9843 298.9020 14.29551663818430
RS-22
1 27939U 03042A 14177.58874675 .00000281 00000-0 60470-4 0 6145
2 27939 097.8107 351.2654 0014589 077.7195 282.5643 14.65221138574103
VO-52
1 28650U 05017B 14177.04504639 .00000708 00000-0 87412-4 0 7747
2 28650 097.5596 181.5680 0026664 127.4656 232.8991 14.85512649494543
HO-68
1 36122U 09072B 14177.68687646 -.00000043 00000-0 00000+0 0 7123
2 36122 100.2487 229.2746 0007400 213.5553 146.5092 13.16316451217687
AO-73
1 39444U 13066AE 14177.69975200 .00000841 00000-0 11921-3 0 1787
2 39444 097.7713 248.0281 0061049 211.4382 148.3101 14.78328494 30872
FUNCUBE-3
1 40025U 14033R 14177.78426723 .00000326 00000-0 44504-4 0 118
2 40025 097.9833 072.4259 0011526 268.8267 091.1626 14.85193769 1015
UO-11
1 14781U 84021B 14177.75698334 .00000244 00000-0 37682-4 0 5290
2 14781 097.8517 237.6982 0009915 144.3216 215.8661 14.81617911629388
AO-16
1 20439U 90005D 14176.83290618 .00000041 00000-0 31098-4 0 539
2 20439 098.5071 114.0060 0011949 130.8555 289.6318 14.32361556275729
LO-19
1 20442U 90005G 14176.80591453 .00000027 00000-0 25629-4 0 9908
2 20442 098.4779 114.6084 0012984 121.1323 239.1136 14.32563397275911
AO-27
1 22825U 93061C 14177.09215922 .00000023 00000-0 26155-4 0 6993
2 22825 098.6623 123.1250 0007258 270.7736 217.6001 14.29724119 82055
IO-26
1 22826U 93061D 14177.34054425 .00000045 00000-0 34505-4 0 4564
2 22826 098.6564 123.5900 0007804 261.2955 098.7343 14.30024971 82228
GO-32
1 25397U 98043D 14177.15981781 .00000011 00000-0 23378-4 0 3780
2 25397 098.4690 134.8129 0000093 355.2943 072.2959 14.23447156829140
NO-44
1 26931U 01043C 14176.99668020 .00000006 00000-0 34203-4 0 6346
2 26931 067.0525 015.7391 0006481 282.7372 077.3004 14.30122867664869
SO-50
1 27607U 02058C 14177.10963696 .00000112 00000-0 37871-4 0 4299
2 27607 064.5550 205.1482 0048735 008.0220 352.1649 14.73785189618794
CO-55
1 27844U 03031E 14177.50488491 .00000089 00000-0 60440-4 0 9569
2 27844 098.6975 186.1423 0008687 243.7882 236.6963 14.21515190569902
CO-57
1 27848U 03031J 14176.93703174 .00000074 00000-0 53970-4 0 8964
2 27848 098.7068 185.2984 0008490 253.6204 167.9784 14.21200916569748
AO-51
1 28375U 04025K 14176.81397993 .00000049 00000-0 27717-4 0 8725
2 28375 098.2506 123.4292 0082155 327.0045 032.6033 14.41393580525144
CP3
1 31129U 07012N 14177.45988782 .00000336 00000-0 84138-4 0 7805
2 31129 097.9341 154.9712 0097699 342.8928 135.7479 14.54711281381389
CO-65
1 32785U 08021C 14177.74499060 .00000528 00000-0 67420-4 0 9858
2 32785 097.6987 228.7283 0014945 153.2422 346.4920 14.85322836333444
PRISM
1 33493U 09002B 14177.75287740 .00001630 00000-0 17708-3 0 451
2 33493 098.2499 353.8080 0019084 055.8523 304.4485 14.89489547293609
SOHLA-1
1 33496U 09002E 14176.83757054 .00000112 00000-0 26587-4 0 3859
2 33496 098.1715 297.7891 0006123 203.2039 271.6561 14.70818314290783
TISAT-1
1 36799U 10035E 14177.78201574 .00001168 00000-0 14104-3 0 3079
2 36799 098.0166 269.8476 0012263 292.7450 067.2433 14.85699171214149
STUDSAT
1 36801U 10035G 14176.35239109 .00003657 00000-0 32478-3 0 8445
2 36801 098.0363 276.6103 0007762 257.9424 142.6352 14.96787849214350
ALMASAT-1
1 38078U 12006B 14177.13348676 .00019988 00000-0 41912-3 0 652
2 38078 069.4685 037.7132 0591239 019.8646 108.9782 14.50583419122934
XATCOBEO
1 38082U 12006F 14177.69771094 .00120420 78227-5 61013-3 0 3463
2 38082 069.4400 289.1464 0193550 318.9224 151.2752 15.59131494125870
CUBEBUG-1
1 39153U 13018D 14177.76952720 .00000543 00000-0 82993-4 0 2419
2 39153 098.0425 258.0508 0017000 323.2907 036.7134 14.77735914 62979
ESTCUBE-1
1 39161U 13021C 14177.75201337 .00000514 00000-0 93994-4 0 2301
2 39161 098.0959 258.5761 0010452 014.4085 345.7394 14.70015436 61003
NANOSATCBR1
1 40024U 14033Q 14177.78422949 .00000510 00000-0 65967-4 0 114
2 40024 097.9824 072.4267 0011550 266.3839 093.6053 14.85202858 1008
MET-2/21
1 22782U 93055A 14176.61638044 .00000018 00000-0 29476-5 0 920
2 22782 082.5487 166.6166 0021163 239.0409 258.1745 13.83738130 51284
OKEAN-4
1 23317U 94066A 14177.31817486 .00000450 00000-0 48982-4 0 5708
2 23317 082.5380 059.3753 0022018 071.3685 039.2579 14.85547767 64468
NOAA-14
1 23455U 94089A 14177.49756569 -.00000015 00000-0 14976-4 0 8021
2 23455 098.7782 260.7690 0009484 020.2481 109.9403 14.13976786 5265
NOAA-15
1 25338U 98030A 14177.46822292 .00000087 00000-0 55794-4 0 2370
2 25338 098.7523 171.3086 0011822 119.6692 031.9234 14.25434762838167
RESURS
1 25394U 98043A 14177.84665584 -.00000047 00000-0 -24610-5 0 6890
2 25394 098.4136 141.8118 0001184 178.2445 238.7886 14.24395221829694
FENGYUN1
1 25730U 99025A 14176.97649214 .00000350 00000-0 21524-3 0 1776
2 25730 098.9132 138.0130 0026642 085.4287 317.1156 14.11922117778769
OKEAN-0
1 25860U 99039A 14176.98695556 .00000191 00000-0 35723-4 0 2867
2 25860 098.0431 140.7992 0001714 084.6763 315.5042 14.75288610803459
NOAA-16
1 26536U 00055A 14177.42829893 .00000104 00000-0 79926-4 0 7335
2 26536 098.9899 237.8330 0011397 155.7961 204.3748 14.13034473709416
NOAA-17
1 27453U 02032A 14177.46321181 .00000010 00000-0 21574-4 0 6333
2 27453 098.3137 176.6873 0012698 143.1721 217.0334 14.24752656624001
NOAA-18
1 28654U 05018A 14177.47419749 -.00000020 00000-0 14378-4 0 1334
2 28654 099.1482 157.1600 0013489 235.1571 285.4795 14.12031600468870
NOAA-19
1 33591U 09005A 14177.49510052 .00000129 00000-0 95141-4 0 2866
2 33591 098.9448 122.5043 0015280 093.7758 014.7515 14.11727431277300
HUBBLE
1 20580U 90037B 14176.88421088 .00000794 00000-0 42068-4 0 425
2 20580 028.4705 339.9582 0003308 020.1905 103.6652 15.05474319126037
ISS
1 25544U 98067A 14177.90493941 .00000408 00000-0 15014-4 0 5778
2 25544 051.6480 051.3869 0004110 175.2517 299.5222 15.50278650892832
CO-58
1 28895U 05043F 14177.79252303 .00000239 00000-0 56432-4 0 8037
2 28895 097.8345 019.1616 0016685 344.9836 015.0869 14.61906824461659
FALCON
1 30776U 07006E 14177.07746502 .00002663 00000-0 13644-3 0 8972
2 30776 035.4296 058.7038 0001806 337.0943 170.3718 15.16381932402089
MAST
1 31126U 07012K 14176.80856605 .00000174 00000-0 48372-4 0 777
2 31126 097.9143 157.2516 0091092 328.1675 149.0022 14.55295181381649
CAPE1
1 31130U 07012P 14177.49846563 .00000292 00000-0 74788-4 0 850
2 31130 097.9354 154.5700 0098269 344.1505 015.6623 14.54463484381160
COMPASS
1 32787U 08021E 14177.71566865 .00001052 00000-0 12039-3 0 9673
2 32787 097.7010 230.9749 0015167 146.1534 214.0654 14.87943644333608
AAUSAT2
1 32788U 08021F 14177.11034613 .00001004 00000-0 11321-3 0 9523
2 32788 097.7022 231.3852 0014657 146.2349 213.9805 14.88656163333570
